Location: Slemon Park
(46.4340°N, 63.8219°W)
Time: 13:18:01
(UTC-04:00)

ISS - All Passes

Search period start: 24 February 2017 00:00
Search period end: 06 March 2017 00:00
Orbit: 399 x 408 km, 51.6° (Epoch: 24 February)

Date Brightness Start Highest point End Pass type
(mag) Time Alt. Az. Time Alt. Az. Time Alt. Az.
24 Feb - 08:18:23 10° S 08:21:00 22° SE 08:23:38 10° E daylight
24 Feb - 09:53:55 10° WSW 09:57:13 69° NNW 10:00:31 10° ENE daylight
24 Feb - 11:31:01 10° WNW 11:34:02 32° N 11:37:03 10° ENE daylight
24 Feb - 13:07:47 10° WNW 13:10:59 44° NNE 13:14:09 10° E daylight
24 Feb - 14:44:19 10° WNW 14:47:28 44° SW 14:50:37 10° SE daylight
25 Feb - 07:27:08 10° SSE 07:28:42 13° SE 07:30:16 10° ESE daylight
25 Feb - 09:01:23 10° SW 09:04:41 76° SSE 09:07:59 10° ENE daylight
25 Feb - 10:38:15 10° W 10:41:21 35° N 10:44:26 10° ENE daylight
25 Feb - 12:15:14 10° WNW 12:18:20 35° N 12:21:24 10° E daylight
25 Feb - 13:51:42 10° WNW 13:55:00 76° SSW 13:58:16 10° SE daylight
25 Feb - 15:29:27 10° WSW 15:30:58 13° SW 15:32:30 10° SSW daylight
26 Feb - 08:09:02 10° SW 08:12:11 44° SE 08:15:22 10° ENE daylight
26 Feb - 09:45:30 10° W 09:48:40 44° NNW 09:51:53 10° ENE daylight
26 Feb - 11:22:36 10° WNW 11:25:37 32° N 11:28:38 10° ENE daylight
26 Feb - 12:59:09 10° WNW 13:02:26 69° NNE 13:05:43 10° ESE daylight
26 Feb - 14:36:02 10° W 14:38:39 22° SW 14:41:14 10° S daylight
27 Feb - 07:16:57 10° SSW 07:19:45 26° SE 07:22:34 10° E daylight
27 Feb - 08:52:46 10° WSW 08:56:02 61° NNW 08:59:19 10° ENE daylight
27 Feb - 10:29:53 10° WNW 10:32:54 31° N 10:35:54 10° ENE daylight
27 Feb - 12:06:35 10° WNW 12:09:49 48° NNE 12:13:01 10° E daylight
27 Feb - 13:43:09 10° WNW 13:46:14 37° SW 13:49:18 10° SSE daylight
28 Feb - 06:25:22 10° S 06:27:23 15° SE 06:29:25 10° E visible
28 Feb - 08:00:08 10° WSW 08:03:26 88° SSE 08:06:46 10° ENE daylight
28 Feb - 09:37:06 10° WNW 09:40:10 34° N 09:43:14 10° ENE daylight
28 Feb - 11:14:00 10° WNW 11:17:07 37° NNE 11:20:14 10° E daylight
28 Feb - 12:50:28 10° WNW 12:53:45 64° SSW 12:57:00 10° SE daylight
28 Feb - 14:28:57 10° WSW 14:29:38 10° SW 14:30:20 10° SW daylight
01 Mar - 07:07:41 10° SW 07:10:53 53° SSE 07:14:07 10° ENE daylight
01 Mar - 08:44:18 10° W 08:47:27 40° NNW 08:50:36 10° ENE daylight
01 Mar - 10:21:22 10° WNW 10:24:24 33° N 10:27:26 10° ENE daylight
01 Mar - 11:57:52 10° WNW 12:01:11 79° NNE 12:04:28 10° ESE daylight
01 Mar - 13:34:56 10° W 13:37:18 18° SW 13:39:40 10° S daylight
02 Mar - 06:15:27 10° SSW 06:18:24 31° SE 06:21:22 10° ENE visible
02 Mar - 07:51:31 10° W 07:54:45 54° NNW 07:58:00 10° ENE daylight
02 Mar - 09:28:38 10° WNW 09:31:38 31° N 09:34:38 10° ENE daylight
02 Mar - 11:05:17 10° WNW 11:08:32 53° NNE 11:11:46 10° E daylight
02 Mar - 12:41:55 10° WNW 12:44:54 31° SW 12:47:50 10° SSE daylight
03 Mar - 05:23:39 10° S 05:25:59 18° SE 05:28:20 10° E visible
03 Mar - 06:58:48 10° WSW 07:02:06 81° NNW 07:05:25 10° ENE daylight
03 Mar - 08:35:49 10° WNW 08:38:52 33° N 08:41:54 10° ENE daylight
03 Mar - 10:12:39 10° WNW 10:15:49 40° NNE 10:18:58 10° E daylight
03 Mar - 11:49:08 10° WNW 11:52:23 54° SSW 11:55:36 10° SE daylight
04 Mar - 04:33:07 10° SE 04:33:37 10° SE 04:34:06 10° ESE visible
04 Mar - 06:06:14 10° SW 06:09:29 63° SSE 06:12:46 10° ENE visible
04 Mar - 07:42:58 10° W 07:46:06 38° NNW 07:49:13 10° ENE daylight
04 Mar - 09:20:00 10° WNW 09:23:03 34° N 09:26:07 10° ENE daylight
04 Mar - 10:56:28 10° WNW 10:59:47 90° W 11:03:05 10° ESE daylight
04 Mar - 12:33:46 10° W 12:35:50 16° SW 12:37:54 10° S daylight
05 Mar - 05:13:53 10° SSW 05:16:57 36° SE 05:20:01 10° ENE visible
05 Mar - 06:50:08 10° W 06:53:21 49° NNW 06:56:35 10° ENE daylight
05 Mar - 08:27:15 10° WNW 08:30:16 31° N 08:33:16 10° ENE daylight
05 Mar - 10:03:51 10° WNW 10:07:08 60° NNE 10:10:23 10° ESE daylight
05 Mar - 11:40:34 10° W 11:43:24 27° SW 11:46:14 10° SSE daylight
